Retour au catalogue

KUIPER-00115

ActifCommunicationsLEO
NORAD 65152·PAYLOAD·🇺🇸 United States

Lancé Aug 11, 2025 depuis Cape Canaveral Space Force Station

Loading…

Prochains Passages (prochaines 24 heures)

TLE

FraisSource: CelesTrak SupGP

Époque: Sep 15, 2026, 03:19 UTC

1 65152C 25171W   26258.13880787  .00001726  00000+0  22604-3 0  2580
2 65152  51.9008  50.3552 0000635 106.9190 165.0095 14.79919509    15

Suivez KUIPER-00115 en temps réel avec AllMySat

Download on the App Store